Skip Navigation Links
NOAA logo - Click to go to the NOAA homepage
NOAA's National Weather Service
Alaska Aviation Weather Unit
  NWS logo - Click to go to the NWS homepage
Left Navbar Graphic     22 AKDT = 06 GMT

   
NOAA is celebrating 200 years of science, service, and stewardship. Visit the NOAA 200th celebration Web site to learn more.
USA.gov is the U.S. Government's official Web portal to all Federal, state and local government Web resources and services.
Facebook
NWS on Facebook

Important Change Regarding the AAWU Web Presence

 

Over the last several months, the AAWU has been working to navigate its webpages to a nationally supported server. Security, as well as other needs, have necessitated the change.  In the process, we have made an effort to enhance the functionality of our website, as well as some of our products. As of June 20, 2017, aawu.arh.noaa.gov will be discontinued. The new AAWU web address is weather.gov/aawu. It is now live and will run in-parallel with the old site until it is discontinued. Please send any feedback or questions regarding the new webpages to nws.ar.aawu.webauthors@noaa.gov.  Thank you for your patience during this time of transition.
AAWU Home :: Display TAF Add Bookmark
TAF PAGA 280537Z 2806/2906 08007KT P6SM SCT025 BKN035 OVC080
      TEMPO 2806/2809 -SHRA BKN025 BKN035=
METAR PAGA 280057Z AUTO 13013KT 10SM SCT070 BKN090 BKN100 11/M01
     A2998=

METAR PAGA 280157Z AUTO 18007G16KT 10SM -RA FEW026 BKN070 OVC100 11/M02
     A2998=

METAR PAGA 280257Z AUTO 09009KT 10SM CLR 11/M01 A2997=

METAR PAGA 280357Z AUTO 08007KT 10SM CLR 11/M01 A2996=

METAR PAGA 280457Z AUTO 21008G16KT 150V280 8SM RA FEW026 BKN036 OVC075
     09/01 A2998=

METAR PAGA 280557Z AUTO 33004KT 10SM SCT055 BKN090 07/04 A2998=


NOAA's National Weather Service
Alaska Aviation Weather Unit
6930 Sand Lake Road
Anchorage, AK 99502-1845
Disclaimer
Credits
Glossary
Privacy Policy
About Us
Career Opportunities
Contact AAWU Internet Services Site last modified: April, 17th 2012